[[{"header":{"parameterUnit":"m.s-1","parameterCategory":1,"la1":30.2991,"la2":30.254,"lo1":-89.0895,"lo2":-89.0444,"dy":0.0017,"dx":0.0017,"nx":28,"ny":28,"refTime":"2025-07-22T09:00:00:Z","depth":0,"parameterNumber":2,"parameterNumberName":"U-component_of_WINDS"},"data":[0,0,0,0,0,0,0,0,0,0,0,0,0,0,0,0,0,0,0,0,0,0,0,0,0,0,0,0,0,0,0,0,0,0,0,0,0,0,0,0,0,0,0,0,0,0,0,0,0,0,0,0,0,0,0,0,0,0,1.5138,1.5138,0,1.5061,1.5061,1.506,1.5029,1.5029,1.5029,1.5029,1.4943,1.494,1.4938,0,0,0,0,0,0,0,0,0,0,0,0,0,1.5252,1.525,1.5138,1.5137,1.5137,1.5062,1.5061,1.5059,1.5029,1.5029,1.5029,1.5029,1.4944,1.4941,1.4938,0,0,0,0,0,0,0,0,0,0,0,0,0,1.5191,1.5249,1.5139,1.5112,1.5109,1.5062,1.5061,1.5059,1.5028,1.5029,1.5029,1.5029,1.4945,1.4941,1.4937,1.4908,0,0,1.4926,1.4924,0,0,0,0,0,0,0,0,1.5195,1.5187,1.5117,1.5114,1.511,1.5055,1.5069,1.5008,1.5028,1.5059,1.5029,1.503,1.4979,1.4973,1.4957,1.4904,1.49,1.4926,1.4923,1.4922,1.4921,0,0,0,0,0,0,0,1.5199,1.519,1.5108,1.5116,1.5112,1.5102,1.5094,1.5057,1.5018,1.5056,1.5054,1.5046,1.4978,1.4961,1.4955,1.4899,1.4926,1.4922,1.492,1.4919,1.4817,1.4817,0,0,0,0,0,0,1.5208,1.5194,1.511,1.5105,1.5154,1.51,1.509,1.5072,1.5018,1.5011,1.5045,1.5044,1.4967,1.496,1.4952,1.4914,1.4922,1.4918,1.4916,1.4818,1.4817,1.4817,0,0,0,0,0,0,1.5211,1.5201,1.5113,1.5149,1.5137,1.5098,1.5077,1.5071,1.5054,1.501,1.5003,1.5036,1.4967,1.4957,1.492,1.4911,1.4916,1.4913,1.4818,1.4817,1.4817,1.4838,0,0,0,0,0,0,1.5214,1.5202,1.5193,1.5149,1.5135,1.5084,1.5077,1.5069,1.5049,1.5047,1.5,1.4992,1.4967,1.4925,1.4916,1.4906,1.491,1.4819,1.4818,1.4817,1.4838,1.4838,1.4838,0,0,0,0,0,1.5218,1.52,1.5192,1.5182,1.5123,1.5084,1.5076,1.5049,1.5048,1.5037,1.5009,1.4994,1.4914,1.4922,1.4911,1.4899,1.4819,1.4818,1.4817,1.4838,1.4838,1.4838,0,0,0,0,0,0,1.524,1.5194,1.5185,1.5152,1.5123,1.5079,1.5064,1.505,1.5019,1.5018,1.4984,1.4973,1.4938,1.4915,1.4925,1.4868,1.4865,1.4862,1.4884,1.4884,1.4885,1.489,1.4907,0,0,0,0,0,1.5242,1.5217,1.5177,1.5151,1.5138,1.5104,1.5086,1.5068,1.5035,1.5022,1.499,1.4957,1.4924,1.4903,1.487,1.4835,1.4823,1.4821,1.4821,1.4822,1.4819,1.4798,1.4796,1.4813,1.4813,1.4813,0,0,1.5244,1.5215,1.5201,1.5155,1.513,1.5103,1.5093,1.5064,1.5043,1.5016,1.498,1.4956,1.4916,1.4879,1.4861,1.4858,1.4812,1.4821,1.4821,1.4818,1.4796,1.4795,1.4793,1.4812,1.4813,1.4813,0,0,1.5234,1.521,1.5187,1.5163,1.5126,1.5104,1.5098,1.5057,1.5041,1.5004,1.4983,1.4956,1.4901,1.4873,1.4852,1.4832,1.4816,1.4822,1.4823,1.4802,1.4801,1.48,1.4791,1.4789,1.482,1.482,1.482,0,1.524,1.52,1.5176,1.5149,1.5128,1.5106,1.5081,1.5058,1.5011,1.4997,1.4995,1.4925,1.4897,1.4853,1.4849,1.4833,1.4823,1.4827,1.4804,1.4802,1.48,1.4792,1.4789,1.4821,1.4821,1.482,1.482,0,1.5209,1.5182,1.5167,1.5126,1.5104,1.5078,1.5047,1.5028,1.5012,1.4989,1.4951,1.4917,1.4877,1.4865,1.4849,1.4819,1.4818,1.4811,1.4807,1.48,1.4792,1.4788,1.4822,1.4822,1.4821,1.4821,0,0,1.5209,1.5156,1.5151,1.5132,1.509,1.5067,1.504,1.5003,1.4987,1.4955,1.493,1.4884,1.4877,1.4853,1.4833,1.4816,1.4801,1.481,1.4808,1.4808,1.4765,1.4771,1.4768,1.4791,1.4791,1.479,1.4768,0,1.5192,1.5145,1.5122,1.5083,1.5057,1.5036,1.5011,1.4982,1.496,1.4933,1.4907,1.4875,1.4869,1.4854,1.4836,1.4807,1.4792,1.4808,1.4765,1.4764,1.4775,1.4763,1.4769,1.475,1.4765,1.4764,1.4764,0,1.5166,1.5138,1.5098,1.506,1.5048,1.5027,1.4991,1.4966,1.4932,1.4917,1.4891,1.4872,1.484,1.484,1.4794,1.4806,1.4787,1.477,1.4769,1.4762,1.4763,1.4756,1.4743,1.474,1.4759,1.4759,1.4759,0,1.517,1.5121,1.5091,1.5075,1.503,1.5016,1.4996,1.4962,1.4942,1.491,1.4896,1.486,1.484,1.4812,1.4783,1.4786,1.474,1.4737,1.4724,1.4725,1.4714,1.4715,1.4698,1.4704,1.4704,1.4705,1.4705,0,1.5152,1.5128,1.5092,1.5073,1.5044,1.5018,1.499,1.4968,1.4938,1.4913,1.4891,1.4868,1.4832,1.4803,1.478,1.4745,1.4736,1.4722,1.4716,1.4723,1.4725,1.4709,1.4709,1.4704,1.4704,1.4704,1.4704,0,1.5151,1.5125,1.5091,1.5052,1.5041,1.5022,1.4987,1.4967,1.4945,1.4913,1.4904,1.4868,1.4833,1.4802,1.4755,1.4739,1.4703,1.4696,1.4716,1.4712,1.4701,1.4702,1.4671,1.4666,1.4678,1.4678,1.4678,0,1.5141,1.5122,1.5082,1.5065,1.5046,1.5019,1.4998,1.4971,1.495,1.4911,1.4895,1.4859,1.4829,1.4773,1.4741,1.4705,1.4696,1.4688,1.469,1.4698,1.4695,1.4696,1.4693,1.4688,1.4688,1.4688,1.4688,0,1.5126,1.5115,1.5088,1.5057,1.5034,1.5007,1.4979,1.4966,1.4933,1.4911,1.4876,1.4853,1.4806,1.477,1.4731,1.4708,1.4691,1.4688,1.4683,1.4689,1.4701,1.4693,1.4715,1.4688,1.4688,1.4688,1.4688,1.4688,1.5119,1.5101,1.5071,1.5041,1.5018,1.4993,1.4972,1.4949,1.492,1.4882,1.4867,1.4831,1.4797,1.4743,1.472,1.469,1.4687,1.468,1.4678,1.4676,1.4677,1.4707,1.4682,1.4682,1.4682,1.4682,1.4682,0,1.5102,1.5082,1.5055,1.5019,1.4995,1.4985,1.4954,1.4934,1.4905,1.4875,1.4847,1.4806,1.4772,1.4738,1.4701,1.4683,1.4675,1.4674,1.4674,1.4669,1.4682,1.469,1.4682,1.4682,1.4682,1.4682,1.4682,1.4682,1.509,1.506,1.5045,1.5002,1.4981,1.4949,1.4932,1.4908,1.4884,1.4841,1.4814,1.4793,1.4761,1.4721,1.4688,1.4679,1.4666,1.4667,1.4655,1.4668,1.4668,1.4669,1.4676,1.4665,1.4665,1.4645,1.4644,1.4644]},{"header":{"parameterUnit":"m.s-1","parameterCategory":1,"la1":30.2991,"la2":30.254,"lo1":-89.0895,"lo2":-89.0444,"dy":0.0017,"dx":0.0017,"nx":28,"ny":28,"refTime":"2025-07-22T09:00:00:Z","depth":0,"parameterNumber":3,"parameterNumberName":"V-component_of_WINDS"},"data":[0,0,0,0,0,0,0,0,0,0,0,0,0,0,0,0,0,0,0,0,0,0,0,0,0,0,0,0,0,0,0,0,0,0,0,0,0,0,0,0,0,0,0,0,0,0,0,0,0,0,0,0,0,0,0,0,0,0,0.5423,0.5419,0,0.5126,0.5123,0.5119,0.4958,0.4957,0.4957,0.4956,0.4649,0.4641,0.4634,0,0,0,0,0,0,0,0,0,0,0,0,0,0.5845,0.5838,0.5423,0.5419,0.5416,0.5127,0.5123,0.5119,0.4958,0.4957,0.4957,0.4956,0.4651,0.4642,0.4633,0,0,0,0,0,0,0,0,0,0,0,0,0,0.5616,0.5836,0.5424,0.53,0.5287,0.5128,0.5122,0.5117,0.4958,0.4957,0.4957,0.4956,0.4655,0.4643,0.4632,0.4571,0,0,0.4596,0.4591,0,0,0,0,0,0,0,0,0.563,0.5601,0.5322,0.5309,0.5293,0.5078,0.5158,0.4934,0.4958,0.5082,0.4956,0.4956,0.4792,0.4769,0.4714,0.4557,0.4544,0.4595,0.4588,0.4583,0.4579,0,0,0,0,0,0,0,0.5646,0.5613,0.5305,0.5318,0.53,0.5258,0.5225,0.5115,0.4944,0.5072,0.5059,0.5026,0.4784,0.4726,0.4706,0.4539,0.4595,0.4585,0.4577,0.4573,0.4313,0.4314,0,0,0,0,0,0,0.5682,0.5627,0.5315,0.5296,0.5463,0.5251,0.5214,0.5148,0.4945,0.4913,0.5027,0.502,0.4747,0.472,0.4695,0.4608,0.4583,0.4572,0.4565,0.4313,0.4314,0.4314,0,0,0,0,0,0,0.5691,0.5655,0.5327,0.5458,0.5413,0.5245,0.5171,0.5142,0.5084,0.4911,0.488,0.5,0.4745,0.4711,0.4603,0.4596,0.4566,0.4556,0.4313,0.4313,0.4314,0.4437,0,0,0,0,0,0,0.5704,0.566,0.5637,0.5459,0.5407,0.5242,0.5171,0.5137,0.5065,0.5053,0.4878,0.4848,0.4742,0.4621,0.4591,0.4579,0.4547,0.4313,0.4313,0.4314,0.4433,0.4442,0.4449,0,0,0,0,0,0.572,0.5683,0.5636,0.5599,0.5374,0.5242,0.5212,0.5091,0.5065,0.5039,0.4928,0.4853,0.4602,0.4611,0.4576,0.456,0.4313,0.4313,0.4313,0.443,0.444,0.4449,0,0,0,0,0,0,0.5863,0.5658,0.5603,0.5508,0.5394,0.5215,0.5178,0.5107,0.4996,0.4989,0.4844,0.4806,0.471,0.4624,0.4639,0.449,0.4449,0.4443,0.4549,0.4558,0.4566,0.4588,0.4537,0,0,0,0,0,0.5884,0.5795,0.5619,0.5552,0.5498,0.5349,0.5286,0.5203,0.5078,0.5029,0.4909,0.479,0.4683,0.4616,0.4508,0.442,0.4378,0.4392,0.44,0.4407,0.4403,0.4347,0.4351,0.4315,0.4315,0.4315,0,0,0.5926,0.5802,0.5755,0.5578,0.5479,0.5388,0.5309,0.5216,0.5147,0.5014,0.4904,0.4813,0.4669,0.457,0.452,0.4495,0.4404,0.4408,0.4415,0.4406,0.4348,0.4352,0.4355,0.4315,0.4315,0.4315,0,0,0.5954,0.5853,0.5785,0.5688,0.554,0.5441,0.5425,0.5256,0.519,0.5078,0.4976,0.489,0.471,0.4612,0.4538,0.4528,0.4455,0.4497,0.4539,0.4487,0.4489,0.4491,0.4486,0.4486,0.4494,0.4494,0.4494,0,0.6024,0.5885,0.5759,0.5672,0.5596,0.5473,0.5401,0.5313,0.5138,0.5087,0.5062,0.4832,0.4727,0.4602,0.46,0.4545,0.452,0.4516,0.45,0.45,0.45,0.4493,0.4491,0.45,0.4499,0.4499,0.4498,0,0.5977,0.5881,0.5844,0.5678,0.5598,0.552,0.538,0.5314,0.5238,0.5141,0.5027,0.4897,0.476,0.4724,0.4649,0.4588,0.4576,0.4528,0.4484,0.4511,0.4502,0.4499,0.4509,0.4506,0.4505,0.4503,0,0,0.6087,0.5853,0.5841,0.5763,0.5591,0.5513,0.5428,0.5295,0.5241,0.5123,0.5047,0.4897,0.485,0.4767,0.4679,0.4634,0.4632,0.4589,0.4583,0.46,0.4553,0.4591,0.459,0.4583,0.4582,0.4581,0.4565,0,0.609,0.5933,0.5817,0.5703,0.5612,0.5493,0.5418,0.5304,0.5211,0.5118,0.5014,0.491,0.4857,0.4806,0.4755,0.4643,0.462,0.4643,0.4508,0.4505,0.4546,0.4585,0.4624,0.4615,0.4561,0.456,0.456,0,0.6072,0.596,0.5838,0.5673,0.5631,0.5566,0.5433,0.5348,0.5214,0.5149,0.5056,0.4966,0.4868,0.4835,0.4697,0.4715,0.4653,0.4589,0.4586,0.4567,0.4533,0.4566,0.461,0.4608,0.4553,0.4554,0.4554,0,0.6163,0.5981,0.5884,0.5821,0.5627,0.5584,0.5501,0.5367,0.5294,0.5178,0.5128,0.5003,0.4933,0.4837,0.4714,0.4702,0.4589,0.4545,0.453,0.4534,0.4511,0.4514,0.4544,0.4474,0.4474,0.4474,0.4474,0,0.6178,0.6107,0.5922,0.5862,0.5779,0.5645,0.5566,0.5472,0.5354,0.5272,0.5161,0.5087,0.493,0.4836,0.4739,0.4639,0.4609,0.4552,0.4527,0.4561,0.4568,0.4517,0.4514,0.4474,0.4474,0.4474,0.4474,0,0.6265,0.6138,0.6024,0.585,0.5804,0.575,0.56,0.5536,0.5437,0.5335,0.5303,0.5147,0.503,0.4898,0.4738,0.4672,0.4578,0.4542,0.4624,0.4609,0.4601,0.4603,0.4598,0.4589,0.4529,0.453,0.453,0,0.6282,0.6224,0.6044,0.5982,0.5902,0.5804,0.5728,0.5594,0.552,0.5363,0.5317,0.5193,0.5085,0.4904,0.4775,0.4651,0.461,0.4617,0.4591,0.4626,0.4608,0.4612,0.4605,0.4624,0.4626,0.4627,0.4628,0,0.6324,0.6264,0.6161,0.6035,0.5949,0.5843,0.5733,0.5688,0.553,0.5453,0.5332,0.5249,0.5085,0.4962,0.4822,0.4733,0.4654,0.4637,0.4627,0.466,0.4709,0.468,0.4642,0.4638,0.4637,0.4636,0.4635,0.4635,0.6374,0.6318,0.6182,0.6069,0.5972,0.5872,0.5803,0.5695,0.5593,0.5449,0.5376,0.5256,0.5121,0.4925,0.484,0.4743,0.4716,0.4702,0.4698,0.4696,0.4705,0.4726,0.4717,0.4716,0.4716,0.4715,0.4715,0,0.641,0.6316,0.6215,0.6064,0.5975,0.591,0.5783,0.5713,0.561,0.5492,0.5388,0.5249,0.5128,0.499,0.486,0.4809,0.4769,0.4779,0.4781,0.4761,0.4736,0.4758,0.4814,0.4814,0.4814,0.4814,0.4814,0.4814,0.6418,0.6317,0.6241,0.6091,0.5996,0.5879,0.5813,0.5718,0.5623,0.5473,0.5373,0.5284,0.5156,0.5016,0.4902,0.4864,0.482,0.4841,0.4793,0.4772,0.4763,0.4755,0.4774,0.4833,0.4833,0.4825,0.4825,0.4825]}]]